Zurück zum Katalog

STARLINK-34683

AktivKommunikationSSO
NORAD 64857·PAYLOAD·🇺🇸 United States

Gestartet Jul 19, 2025 von Vandenberg Space Force Base

Loading…

Nächste Überflüge (nächste 24 Stunden)

TLE

AktuellSource: CelesTrak SupGP

Epoche: Sep 14, 2026, 15:04 UTC

1 64857C 25152R   26257.62826389 -.00015524  00000+0 -48179-3 0  2578
2 64857  97.2836 108.3292 0001843  84.0679  60.6694 15.33453565    14

Verfolge STARLINK-34683 in Echtzeit mit AllMySat

Download on the App Store